Total_Precipitation_Accumulation
0.10 0.24 0.08 0.05 0.13 0.19 0.34 0.12 0.03 0.00 0.00 0.00 0.01 0.02 0.00 0.00 0.00 0.00 0.00 0.00 0.00 0.00 0.00 0.00 0.00 0.00 0.00 0.00 0.00 0.00 0.00 0.00 0.00 0.00 0.00 0.00 0.00 0.00 0.00 0.00 0.00 0.00 0.00 0.00 0.00 0.00 0.00 0.00 0.00 0.00 0.00 0.00 0.00 0.00 0.00 0.00 0.00 0.00 0.00 0.00 0.00 0.00 0.00 0.00 0.00 0.00 0.00 0.00 0.00 0.00 0.00 0.00 0.00 0.00 0.00 0.00 0.00 0.00 0.00 0.00 0.00 0.00 0.00 0.00 0.00
0.00 0.00 0.00 0.02 0.05 0.16 0.09 0.03 0.00 0.00 0.00 0.00 0.00 0.00 0.00 0.00 0.00 0.00 0.00 0.00 0.00 0.00 0.00 0.00 0.00 0.00 0.00 0.00 0.00 0.00 0.00 0.00 0.00 0.00 0.00 0.00 0.00 0.00 0.00 0.00 0.00 0.00 0.00 0.00 0.00 0.00 0.00 0.00 0.00 0.00 0.00 0.00 0.00 0.00 0.00 0.00 0.00 0.00 0.00 0.00 0.00 0.00 0.00 0.00 0.00 0.00 0.00 0.00 0.00 0.00 0.00 0.00 0.00 0.00 0.00 0.00 0.00 0.00 0.00 0.00 0.00 0.00 0.00 0.00 0.00
0.15 0.12 0.03 0.03 0.02 0.06 0.05 0.05 0.01 0.00 0.00 0.00 0.01 0.00 0.00 0.00 0.00 0.00 0.00 0.00 0.00 0.00 0.00 0.00 0.00 0.00 0.00 0.00 0.00 0.00 0.00 0.00 0.00 0.00 0.00 0.00 0.00 0.00 0.00 0.00 0.00 0.00 0.00 0.00 0.00 0.00 0.00 0.00 0.00 0.00 0.00 0.00 0.00 0.00 0.00 0.00 0.00 0.00 0.00 0.00 0.00 0.00 0.00 0.00 0.00 0.00 0.00 0.00 0.00 0.00 0.00 0.00 0.00 0.00 0.00 0.00 0.00 0.00 0.00 0.00 0.00 0.00 0.00 0.00 0.00
0.21 0.42 0.10 0.04 0.02 0.05 0.01 0.01 0.07 0.23 0.01 0.02 0.02 0.01 0.00 0.00 0.00 0.00 0.00 0.00 0.00 0.00 0.00 0.00 0.00 0.00 0.00 0.00 0.00 0.00 0.00 0.00 0.00 0.00 0.00 0.00 0.00 0.00 0.00 0.00 0.00 0.00 0.00 0.00 0.00 0.00 0.00 0.00 0.00 0.00 0.00 0.00 0.00 0.00 0.00 0.00 0.00 0.00 0.00 0.00 0.00 0.00 0.00 0.00 0.00 0.00 0.00 0.00 0.00 0.00 0.00 0.00 0.00 0.00 0.00 0.00 0.00 0.00 0.00 0.00 0.00 0.00 0.00 0.00 0.00
1.10 0.78 0.56 0.51 0.02 0.03 0.03 0.03 0.08 0.10 0.12 0.03 0.03 0.06 0.03 0.03 0.01 0.02 0.01 0.00 0.01 0.04 0.00 0.00 0.00 0.00 0.00 0.00 0.00 0.00 0.00 0.01 0.05 0.01 0.01 0.00 0.00 0.00 0.00 0.00 0.00 0.00 0.00 0.00 0.00 0.00 0.00 0.00 0.00 0.00 0.00 0.00 0.00 0.00 0.00 0.00 0.00 0.00 0.00 0.00 0.00 0.00 0.00 0.00 0.00 0.00 0.00 0.00 0.00 0.00 0.00 0.00 0.00 0.00 0.00 0.00 0.00 0.00 0.00 0.00 0.00 0.00 0.00 0.00 0.00
1.29 0.76 1.28 0.73 0.78 0.61 0.35 0.17 0.06 0.04 0.04 0.03 0.04 0.07 0.01 0.03 0.03 0.08 0.08 0.02 0.04 0.02 0.00 0.00 0.00 0.05 0.09 0.01 0.02 0.02 0.01 0.01 0.04 0.00 0.00 0.00 0.00 0.00 0.00 0.00 0.00 0.00 0.00 0.00 0.00 0.00 0.00 0.00 0.00 0.00 0.00 0.00 0.00 0.00 0.00 0.00 0.00 0.00 0.00 0.00 0.00 0.00 0.00 0.00 0.00 0.00 0.00 0.00 0.00 0.00 0.00 0.00 0.00 0.00 0.00 0.00 0.00 0.00 0.00 0.00 0.00 0.00 0.00 0.00 0.00
0.76 0.76 1.07 0.73 0.41 0.32 0.30 0.22 0.13 0.06 0.02 0.01 0.03 0.05 0.05 0.03 0.08 0.13 0.25 0.29 0.16 0.16 0.31 0.16 0.14 0.08 0.06 0.15 0.11 0.01 0.01 0.02 0.01 0.00 0.00 0.00 0.00 0.00 0.00 0.00 0.00 0.00 0.00 0.00 0.00 0.00 0.00 0.00 0.00 0.00 0.00 0.00 0.00 0.00 0.01 0.00 0.00 0.00 0.00 0.00 0.00 0.00 0.00 0.00 0.00 0.00 0.00 0.00 0.00 0.00 0.00 0.00 0.00 0.00 0.00 0.00 0.00 0.00 0.00 0.00 0.00 0.00 0.00 0.00 0.00
0.67 0.37 0.46 0.51 0.68 0.51 0.56 0.45 0.52 0.40 0.32 0.08 0.11 0.16 0.07 0.17 0.18 0.16 0.20 0.22 0.47 0.34 0.23 0.25 0.34 0.19 0.18 0.25 0.07 0.03 0.02 0.07 0.02 0.02 0.00 0.00 0.00 0.00 0.00 0.00 0.01 0.00 0.00 0.00 0.00 0.00 0.00 0.00 0.00 0.00 0.01 0.01 0.00 0.01 0.00 0.00 0.00 0.00 0.00 0.00 0.00 0.00 0.00 0.00 0.00 0.00 0.00 0.00 0.00 0.00 0.00 0.00 0.00 0.00 0.00 0.00 0.00 0.00 0.00 0.00 0.00 0.00 0.00 0.00 0.00
0.43 0.29 0.30 0.68 0.57 1.04 0.60 0.17 0.23 0.30 0.07 0.10 0.15 0.19 0.09 0.17 0.38 0.34 0.59 0.62 0.46 0.39 0.34 0.34 0.41 0.39 0.30 0.45 0.25 0.29 0.49 0.29 0.10 0.03 0.02 0.02 0.00 0.00 0.00 0.02 0.01 0.02 0.05 0.05 0.12 0.04 0.02 0.01 0.00 0.00 0.03 0.01 0.00 0.00 0.01 0.00 0.01 0.01 0.01 0.00 0.00 0.00 0.00 0.00 0.00 0.00 0.01 0.00 0.00 0.00 0.00 0.00 0.00 0.00 0.00 0.00 0.00 0.00 0.00 0.00 0.00 0.00 0.00 0.00 0.00
0.37 0.41 0.46 0.64 0.71 0.75 0.37 0.28 0.40 0.33 0.45 0.46 0.25 0.35 0.42 0.44 0.20 0.12 0.03 0.09 0.29 0.47 0.31 0.42 0.44 0.43 0.51 0.40 0.26 0.33 0.27 0.29 0.25 0.22 0.12 0.07 0.06 0.02 0.01 0.00 0.01 0.03 0.09 0.06 0.06 0.08 0.07 0.05 0.02 0.00 0.00 0.00 0.00 0.00 0.00 0.00 0.00 0.00 0.01 0.00 0.01 0.01 0.00 0.00 0.00 0.00 0.00 0.01 0.00 0.00 0.00 0.00 0.00 0.00 0.00 0.00 0.00 0.00 0.00 0.00 0.00 0.00 0.00 0.00 0.00
0.33 0.56 0.43 0.18 0.27 0.18 0.19 0.20 0.32 0.44 0.25 0.14 0.13 0.22 0.18 0.31 0.35 0.14 0.16 0.33 0.19 0.09 0.11 0.06 0.16 0.15 0.17 0.15 0.16 0.18 0.21 0.34 0.22 0.18 0.29 0.37 0.15 0.16 0.11 0.07 0.03 0.00 0.01 0.01 0.02 0.02 0.06 0.13 0.28 0.18 0.09 0.07 0.01 0.00 0.00 0.01 0.00 0.00 0.00 0.00 0.00 0.00 0.00 0.00 0.00 0.00 0.00 0.00 0.00 0.00 0.00 0.00 0.00 0.00 0.00 0.00 0.00 0.00 0.00 0.00 0.00 0.00 0.00 0.00 0.00
0.50 0.21 0.16 0.06 0.15 0.08 0.07 0.24 0.36 0.51 0.12 0.15 0.20 0.17 0.32 0.51 0.25 0.21 0.16 0.07 0.05 0.05 0.10 0.07 0.03 0.02 0.01 0.01 0.02 0.03 0.04 0.04 0.05 0.06 0.05 0.05 0.05 0.06 0.10 0.08 0.08 0.07 0.08 0.02 0.00 0.00 0.00 0.00 0.08 0.05 0.04 0.03 0.03 0.01 0.00 0.00 0.00 0.00 0.00 0.01 0.00 0.00 0.00 0.00 0.00 0.00 0.00 0.00 0.00 0.00 0.00 0.00 0.00 0.00 0.00 0.00 0.00 0.00 0.00 0.00 0.00 0.00 0.00 0.00 0.00
0.10 0.22 0.20 0.22 0.05 0.00 0.01 0.03 0.11 0.10 0.37 0.81 0.22 0.16 0.18 0.08 0.11 0.05 0.07 0.06 0.09 0.04 0.02 0.01 0.02 0.02 0.02 0.02 0.01 0.01 0.02 0.00 0.00 0.00 0.01 0.01 0.01 0.01 0.01 0.00 0.01 0.00 0.00 0.00 0.00 0.00 0.00 0.04 0.07 0.01 0.01 0.03 0.06 0.11 0.14 0.04 0.00 0.00 0.00 0.00 0.00 0.00 0.01 0.00 0.02 0.03 0.00 0.00 0.00 0.00 0.00 0.00 0.00 0.00 0.00 0.00 0.00 0.00 0.00 0.00 0.00 0.00 0.00 0.00 0.00
0.06 0.02 0.01 0.01 0.04 0.07 0.04 0.08 0.92 0.52 0.27 0.04 0.21 0.29 0.06 0.08 0.19 0.42 0.19 0.10 0.09 0.10 0.02 0.03 0.02 0.01 0.02 0.00 0.01 0.02 0.19 0.38 0.09 0.01 0.00 0.00 0.00 0.00 0.00 0.00 0.01 0.01 0.00 0.00 0.08 0.05 0.13 0.09 0.02 0.01 0.01 0.01 0.01 0.00 0.00 0.00 0.00 0.00 0.01 0.00 0.00 0.00 0.00 0.00 0.00 0.00 0.01 0.00 0.00 0.00 0.00 0.00 0.00 0.00 0.00 0.00 0.00 0.01 0.03 0.00 0.00 0.00 0.00 0.00 0.00
0.00 0.01 0.01 0.01 0.00 0.00 0.00 0.00 0.01 0.01 0.02 0.02 0.05 0.05 0.03 0.20 0.11 0.16 0.05 0.03 0.15 0.09 0.09 0.12 0.08 0.07 0.04 0.04 0.11 0.14 0.38 0.37 0.12 0.09 0.30 0.05 0.01 0.02 0.02 0.01 0.01 0.00 0.01 0.01 0.04 0.03 0.02 0.13 0.05 0.05 0.04 0.03 0.07 0.01 0.04 0.01 0.05 0.05 0.03 0.01 0.00 0.00 0.00 0.00 0.00 0.00 0.00 0.03 0.06 0.03 0.01 0.03 0.32 0.13 0.06 0.04 0.05 0.22 0.06 0.16 0.00 0.00 0.00 0.00 0.00
0.02 0.01 0.02 0.02 0.22 0.12 0.02 0.05 0.14 0.13 0.00 0.01 0.07 0.04 0.01 0.01 0.05 0.04 0.01 0.03 0.03 0.04 0.06 0.10 0.15 0.09 0.14 0.16 0.08 0.04 0.16 0.19 0.87 1.01 0.26 0.30 0.19 0.29 0.28 0.34 0.17 0.11 0.22 0.28 0.23 0.26 0.22 0.20 0.03 0.05 0.16 0.13 0.14 0.11 0.16 0.42 0.28 0.10 0.07 0.04 0.09 0.06 0.00 0.00 0.00 0.01 0.00 0.00 0.01 0.01 0.00 0.40 0.00 0.12 0.07 0.02 0.00 0.00 0.00 0.00 0.00 0.00 0.00 0.00 0.00
0.42 0.10 0.04 0.08 0.06 0.04 0.02 0.07 0.15 0.26 0.21 0.26 0.48 0.04 0.01 0.01 0.14 0.20 0.12 0.07 0.05 0.09 0.11 0.07 0.20 0.11 0.03 0.05 0.08 0.26 0.61 1.24 0.67 0.14 0.16 0.15 0.05 0.24 0.06 0.13 0.09 0.09 0.08 0.07 0.07 0.07 0.03 0.02 0.09 0.29 0.17 0.17 0.20 0.10 0.18 0.09 0.14 0.18 0.12 0.19 0.08 0.09 0.19 0.25 0.22 0.24 0.21 0.17 0.02 0.00 0.00 0.00 0.05 0.04 0.01 0.00 0.08 0.01 0.00 0.00 0.01 0.00 0.00 0.00 0.00
0.03 0.03 0.23 0.11 0.17 0.22 0.31 0.52 0.13 0.05 0.19 0.35 0.35 0.42 0.33 0.03 0.05 0.11 0.14 0.24 0.26 0.22 0.24 0.17 0.20 0.11 0.16 0.15 0.33 0.70 0.34 0.11 0.01 0.00 0.00 0.00 0.04 0.01 0.04 0.15 0.08 0.44 0.15 0.09 0.06 0.05 0.03 0.02 0.04 0.20 0.66 0.19 0.08 0.04 0.01 0.11 0.14 0.01 0.08 0.17 0.01 0.06 0.12 0.04 0.04 0.06 0.05 0.12 0.01 0.02 0.00 0.00 0.00 0.00 0.00 0.01 0.01 0.02 0.03 0.03 0.00 0.00 0.00 0.00 0.00
0.33 0.16 0.03 0.02 0.03 0.05 0.01 0.03 0.14 0.20 0.30 0.52 0.36 0.31 0.34 0.24 0.10 0.04 0.04 0.07 0.11 0.17 0.28 0.27 0.20 0.16 0.33 0.28 0.44 0.47 0.21 0.32 0.07 0.09 0.03 0.02 0.05 0.05 0.03 0.09 0.06 0.04 0.06 0.07 0.03 0.01 0.05 0.00 0.00 0.01 0.15 0.98 0.33 0.04 0.01 0.12 0.07 0.06 0.17 0.10 0.10 0.03 0.28 0.01 0.00 0.00 0.01 0.09 0.11 0.06 0.22 0.07 0.05 0.00 0.01 0.00 0.00 0.00 0.02 0.09 0.08 0.05 0.01 0.00 0.00
0.06 0.50 0.35 0.27 0.06 0.00 0.00 0.00 0.03 0.08 0.00 0.00 0.00 0.01 0.18 0.51 0.34 0.35 0.08 0.02 0.02 0.02 0.02 0.03 0.06 0.12 0.20 0.29 0.49 0.37 0.35 0.25 0.33 0.11 0.05 0.04 0.01 0.19 0.40 0.22 0.62 0.08 0.01 0.01 0.01 0.01 0.02 0.00 0.00 0.00 0.00 0.00 0.00 0.02 0.01 0.07 0.72 0.64 0.32 0.26 0.25 0.12 0.12 0.13 0.26 0.30 0.02 0.00 0.00 0.00 0.00 0.03 0.05 0.02 0.00 0.02 0.02 0.04 0.01 0.04 0.02 0.02 0.00 0.00 0.00
0.05 0.08 0.09 0.05 0.06 0.15 0.10 0.06 0.02 0.02 0.02 0.01 0.00 0.00 0.00 0.01 0.01 0.16 0.30 0.34 0.24 0.08 0.03 0.02 0.05 0.04 0.10 0.26 0.39 0.37 0.18 0.23 0.28 0.30 0.15 0.35 0.66 0.95 0.46 0.11 0.12 0.15 0.21 0.17 0.15 0.08 0.23 0.32 0.25 0.25 0.08 0.08 0.01 0.01 0.04 0.01 0.07 0.90 0.19 0.09 0.05 0.25 0.31 0.01 0.11 0.06 0.17 0.02 0.00 0.01 0.01 0.06 0.05 0.02 0.09 0.05 0.02 0.01 0.01 0.01 0.00 0.00 0.00 0.00 0.00
0.01 0.01 0.04 0.03 0.02 0.02 0.06 0.04 0.03 0.01 0.04 0.02 0.06 0.03 0.02 0.02 0.05 0.04 0.03 0.02 0.10 0.08 0.14 0.07 0.06 0.08 0.12 0.14 0.16 0.31 0.33 0.21 0.59 0.78 0.44 0.49 0.65 0.30 0.38 0.31 0.52 0.45 0.15 0.11 0.04 0.07 0.03 0.09 0.21 0.18 0.16 0.30 0.31 0.21 0.13 0.10 0.07 0.34 0.17 0.20 0.42 0.01 0.08 0.05 0.12 0.01 0.01 0.00 0.00 0.00 0.00 0.00 0.01 0.00 0.01 0.00 0.02 0.01 0.00 0.00 0.00 0.00 0.00 0.00 0.00
0.01 0.01 0.00 0.00 0.01 0.00 0.00 0.01 0.00 0.01 0.02 0.02 0.04 0.03 0.01 0.00 0.00 0.00 0.00 0.02 0.03 0.06 0.28 0.56 0.57 0.60 0.41 0.36 0.17 0.19 0.28 0.33 0.16 0.51 0.76 0.69 0.64 0.52 0.27 0.07 0.13 0.10 0.28 0.19 0.03 0.03 0.29 0.18 0.12 0.11 0.05 0.03 0.07 0.06 0.07 0.07 0.05 0.10 0.13 0.04 0.12 0.04 0.11 0.06 0.04 0.02 0.01 0.01 0.01 0.00 0.00 0.00 0.00 0.00 0.00 0.00 0.00 0.00 0.00 0.00 0.00 0.00 0.00 0.00 0.00
0.00 0.01 0.01 0.01 0.01 0.00 0.00 0.00 0.00 0.00 0.00 0.00 0.00 0.00 0.00 0.01 0.01 0.02 0.01 0.02 0.01 0.02 0.03 0.04 0.13 0.27 0.29 0.65 0.34 0.29 0.19 0.10 0.07 0.24 0.31 0.25 0.23 0.39 0.27 0.24 0.16 0.47 0.37 0.22 0.03 0.17 0.31 0.16 0.05 0.01 0.01 0.00 0.00 0.00 0.00 0.00 0.02 0.00 0.01 0.01 0.03 0.06 0.21 0.06 0.02 0.02 0.01 0.00 0.01 0.02 0.02 0.02 0.01 0.00 0.00 0.00 0.00 0.00 0.00 0.00 0.00 0.00 0.00 0.00 0.00
0.00 0.00 0.00 0.00 0.00 0.02 0.00 0.01 0.00 0.00 0.00 0.00 0.00 0.00 0.01 0.00 0.00 0.00 0.00 0.01 0.01 0.03 0.03 0.02 0.02 0.03 0.02 0.11 0.26 0.21 0.28 0.48 0.24 0.18 0.17 0.41 0.24 0.31 0.29 0.15 0.20 0.17 0.25 0.08 0.03 0.16 0.11 0.03 0.05 0.14 0.09 0.06 0.04 0.03 0.03 0.01 0.01 0.01 0.00 0.00 0.02 0.07 0.18 0.13 0.14 0.03 0.02 0.01 0.01 0.00 0.02 0.01 0.00 0.00 0.00 0.00 0.00 0.00 0.00 0.00 0.00 0.00 0.00 0.01 0.02
0.00 0.00 0.00 0.00 0.00 0.00 0.01 0.02 0.01 0.00 0.00 0.03 0.00 0.00 0.00 0.01 0.01 0.02 0.02 0.01 0.00 0.00 0.02 0.01 0.02 0.03 0.11 0.04 0.01 0.02 0.06 0.19 0.11 0.12 0.09 0.10 0.17 0.19 0.19 0.19 0.24 0.19 0.15 0.09 0.07 0.08 0.01 0.00 0.00 0.01 0.02 0.04 0.01 0.05 0.03 0.05 0.06 0.15 0.16 0.16 0.05 0.03 0.02 0.02 0.02 0.00 0.02 0.01 0.02 0.03 0.01 0.00 0.00 0.00 0.01 0.00 0.00 0.00 0.00 0.00 0.00 0.00 0.00 0.00 0.00
0.00 0.00 0.00 0.00 0.01 0.00 0.00 0.00 0.03 0.01 0.01 0.00 0.00 0.00 0.00 0.01 0.02 0.00 0.01 0.03 0.02 0.02 0.01 0.01 0.06 0.01 0.02 0.02 0.02 0.02 0.07 0.01 0.15 0.21 0.07 0.26 0.25 0.04 0.04 0.20 0.16 0.13 0.16 0.10 0.08 0.05 0.05 0.02 0.03 0.00 0.03 0.01 0.01 0.01 0.00 0.00 0.00 0.00 0.00 0.00 0.00 0.00 0.00 0.01 0.01 0.04 0.02 0.04 0.04 0.00 0.00 0.00 0.00 0.00 0.00 0.00 0.00 0.00 0.00 0.00 0.00 0.01 0.00 0.00 0.00
0.00 0.00 0.01 0.00 0.00 0.00 0.00 0.00 0.00 0.00 0.15 0.18 0.22 0.02 0.04 0.25 0.01 0.00 0.02 0.02 0.01 0.02 0.07 0.10 0.07 0.31 0.07 0.10 0.07 0.16 0.20 0.03 0.01 0.02 0.01 0.01 0.02 0.05 0.30 0.11 0.08 0.10 0.13 0.17 0.12 0.11 0.09 0.05 0.02 0.03 0.02 0.04 0.05 0.01 0.01 0.01 0.00 0.00 0.00 0.00 0.00 0.00 0.03 0.01 0.01 0.02 0.10 0.06 0.03 0.02 0.01 0.00 0.00 0.00 0.00 0.00 0.00 0.00 0.00 0.00 0.00 0.00 0.00 0.01 0.01
0.00 0.00 0.00 0.00 0.00 0.00 0.01 0.02 0.04 0.02 0.00 0.00 0.02 0.04 0.23 0.37 0.36 0.15 0.05 0.05 0.02 0.03 0.02 0.12 0.14 0.18 0.20 0.16 0.26 0.12 0.07 0.11 0.20 0.13 0.37 0.20 0.13 0.08 0.12 0.02 0.03 0.01 0.02 0.05 0.29 0.17 0.25 0.16 0.06 0.17 0.12 0.08 0.06 0.03 0.04 0.02 0.02 0.02 0.02 0.02 0.01 0.05 0.01 0.02 0.01 0.01 0.00 0.00 0.00 0.00 0.00 0.05 0.03 0.00 0.00 0.00 0.00 0.00 0.00 0.00 0.00 0.03 0.00 0.01 0.02
0.00 0.00 0.00 0.00 0.00 0.00 0.00 0.00 0.00 0.01 0.04 0.00 0.01 0.01 0.09 0.01 0.03 0.10 0.60 0.50 0.44 0.25 0.10 0.19 0.26 0.40 0.34 0.38 0.18 0.12 0.15 0.30 0.02 0.03 0.16 0.18 0.29 0.22 0.35 0.26 0.15 0.28 0.10 0.11 0.21 0.19 0.25 0.13 0.11 0.04 0.04 0.10 0.11 0.08 0.03 0.02 0.02 0.02 0.02 0.02 0.01 0.02 0.01 0.01 0.01 0.01 0.01 0.00 0.00 0.00 0.00 0.00 0.00 0.00 0.00 0.00 0.00 0.00 0.00 0.02 0.00 0.01 0.02 0.01 0.01
0.00 0.00 0.00 0.01 0.01 0.00 0.00 0.01 0.03 0.02 0.00 0.00 0.01 0.00 0.00 0.06 0.01 0.13 0.01 0.04 0.14 0.32 0.51 0.32 0.13 0.10 0.12 0.26 0.49 0.05 0.08 0.22 0.16 0.18 0.22 0.41 0.28 0.29 0.33 0.29 0.32 0.34 0.33 0.45 0.32 0.24 0.32 0.23 0.23 0.22 0.20 0.20 0.17 0.27 0.15 0.09 0.08 0.04 0.13 0.15 0.18 0.09 0.22 0.25 0.03 0.02 0.01 0.00 0.17 0.03 0.00 0.00 0.00 0.00 0.00 0.00 0.00 0.00 0.00 0.00 0.01 0.01 0.01 0.01 0.02
0.01 0.00 0.00 0.00 0.00 0.01 0.01 0.01 0.00 0.00 0.01 0.15 0.03 0.01 0.00 0.02 0.05 0.02 0.04 0.09 0.03 0.03 0.05 0.14 0.36 0.57 0.60 0.25 0.24 0.90 0.36 0.18 0.09 0.07 0.26 0.25 0.17 0.15 0.23 0.17 0.09 0.17 0.35 0.36 0.50 0.43 0.40 0.34 0.33 0.33 0.19 0.18 0.25 0.23 0.19 0.26 0.16 0.16 0.14 0.15 0.22 0.15 0.20 0.15 0.12 0.16 0.22 0.12 0.03 0.00 0.01 0.00 0.00 0.00 0.00 0.00 0.01 0.01 0.01 0.00 0.01 0.01 0.01 0.01 0.01
0.01 0.01 0.00 0.00 0.00 0.00 0.00 0.00 0.00 0.02 0.01 0.00 0.01 0.01 0.13 0.08 0.32 0.29 0.23 0.03 0.05 0.02 0.03 0.05 0.02 0.01 0.05 0.23 0.30 0.28 0.21 0.40 0.86 0.46 0.32 0.44 0.13 0.12 0.32 0.40 0.36 0.40 0.29 0.22 0.09 0.09 0.33 0.50 0.67 0.46 0.53 0.46 0.26 0.33 0.45 0.52 0.38 0.35 0.30 0.19 0.14 0.08 0.10 0.16 0.15 0.18 0.35 0.11 0.14 0.09 0.11 0.02 0.03 0.01 0.01 0.01 0.01 0.01 0.01 0.01 0.01 0.02 0.02 0.02 0.01
0.01 0.01 0.01 0.00 0.01 0.00 0.00 0.00 0.00 0.00 0.01 0.03 0.02 0.04 0.02 0.03 0.01 0.17 0.03 0.01 0.04 0.12 0.14 0.01 0.08 0.01 0.00 0.02 0.08 0.13 0.14 0.15 0.13 0.33 0.29 0.62 0.49 0.39 0.41 0.53 0.65 0.34 0.37 0.51 0.38 0.26 0.21 0.19 0.12 0.07 0.20 0.20 0.36 0.43 0.45 0.28 0.22 0.18 0.24 0.29 0.24 0.15 0.18 0.13 0.16 0.10 0.09 0.13 0.19 0.10 0.03 0.03 0.03 0.01 0.02 0.01 0.03 0.03 0.04 0.02 0.04 0.03 0.02 0.02 0.02
0.01 0.01 0.01 0.01 0.01 0.01 0.01 0.01 0.01 0.01 0.02 0.01 0.02 0.06 0.08 0.05 0.22 0.03 0.05 0.20 0.02 0.12 0.32 0.36 0.09 0.00 0.01 0.00 0.02 0.01 0.10 0.14 0.11 0.18 0.29 0.34 0.21 0.28 0.31 0.38 0.33 0.28 0.33 0.30 0.21 0.24 0.21 0.16 0.20 0.16 0.11 0.08 0.08 0.15 0.20 0.33 0.34 0.34 0.32 0.32 0.28 0.29 0.21 0.17 0.15 0.11 0.21 0.19 0.15 0.04 0.04 0.05 0.05 0.04 0.03 0.06 0.06 0.05 0.04 0.02 0.02 0.02 0.02 0.02 0.02
0.02 0.02 0.02 0.02 0.03 0.03 0.03 0.02 0.01 0.01 0.03 0.02 0.02 0.02 0.04 0.07 0.04 0.14 0.15 0.08 0.28 0.23 0.22 0.19 0.16 0.03 0.11 0.06 0.01 0.02 0.01 0.03 0.13 0.28 0.26 0.19 0.26 0.21 0.33 0.34 0.30 0.28 0.33 0.27 0.15 0.20 0.23 0.19 0.17 0.15 0.17 0.10 0.11 0.10 0.08 0.12 0.08 0.12 0.17 0.30 0.30 0.37 0.30 0.26 0.22 0.19 0.13 0.11 0.09 0.05 0.04 0.05 0.04 0.05 0.07 0.06 0.04 0.03 0.03 0.03 0.02 0.01 0.01 0.02 0.02
0.03 0.03 0.05 0.05 0.05 0.05 0.04 0.02 0.02 0.01 0.01 0.01 0.01 0.01 0.00 0.01 0.02 0.04 0.03 0.33 0.42 0.36 0.26 0.22 0.13 0.07 0.17 0.42 0.19 0.01 0.02 0.06 0.04 0.10 0.12 0.29 0.32 0.25 0.27 0.38 0.52 0.30 0.36 0.41 0.33 0.30 0.18 0.23 0.21 0.19 0.15 0.17 0.24 0.17 0.09 0.06 0.05 0.05 0.04 0.06 0.08 0.16 0.26 0.23 0.18 0.15 0.11 0.07 0.07 0.05 0.05 0.05 0.04 0.05 0.06 0.07 0.04 0.03 0.03 0.02 0.02 0.01 0.01 0.02 0.03
0.06 0.07 0.06 0.05 0.06 0.06 0.05 0.03 0.02 0.01 0.02 0.02 0.01 0.02 0.01 0.04 0.07 0.03 0.06 0.06 0.04 0.12 0.24 0.35 0.29 0.60 0.18 0.25 0.11 0.16 0.38 0.02 0.00 0.01 0.04 0.07 0.10 0.29 0.23 0.17 0.32 0.32 0.26 0.27 0.23 0.45 0.43 0.16 0.25 0.29 0.24 0.17 0.14 0.10 0.10 0.07 0.05 0.04 0.04 0.05 0.04 0.05 0.10 0.13 0.13 0.12 0.09 0.08 0.07 0.07 0.06 0.06 0.06 0.06 0.05 0.06 0.05 0.04 0.04 0.03 0.03 0.03 0.03 0.02 0.03
0.06 0.03 0.05 0.07 0.08 0.08 0.06 0.03 0.02 0.03 0.03 0.03 0.02 0.01 0.01 0.01 0.02 0.04 0.09 0.09 0.21 0.12 0.17 0.11 0.17 0.16 0.35 0.38 0.52 0.15 0.16 0.28 0.15 0.06 0.01 0.01 0.03 0.17 0.21 0.20 0.24 0.32 0.32 0.35 0.29 0.36 0.27 0.39 0.33 0.25 0.24 0.18 0.18 0.14 0.11 0.09 0.06 0.05 0.05 0.04 0.04 0.05 0.05 0.04 0.06 0.05 0.06 0.05 0.05 0.04 0.05 0.05 0.05 0.05 0.05 0.06 0.05 0.04 0.04 0.04 0.03 0.04 0.05 0.03 0.02
0.05 0.04 0.03 0.08 0.09 0.06 0.06 0.04 0.04 0.05 0.05 0.04 0.02 0.03 0.25 0.02 0.03 0.04 0.04 0.02 0.03 0.16 0.60 0.38 0.27 0.19 0.29 0.18 0.45 0.50 0.47 0.39 0.35 0.26 0.14 0.04 0.03 0.02 0.02 0.14 0.28 0.30 0.39 0.32 0.24 0.22 0.32 0.21 0.27 0.48 0.39 0.26 0.23 0.19 0.16 0.13 0.10 0.09 0.08 0.06 0.06 0.06 0.06 0.06 0.05 0.05 0.06 0.06 0.05 0.04 0.05 0.05 0.05 0.05 0.03 0.02 0.03 0.04 0.05 0.05 0.04 0.04 0.04 0.03 0.03
0.19 0.21 0.22 0.20 0.13 0.10 0.11 0.10 0.09 0.08 0.07 0.05 0.03 0.02 0.03 0.39 0.04 0.02 0.09 0.13 0.07 0.17 0.14 0.21 0.42 0.65 0.36 0.12 0.07 0.12 0.21 0.39 0.56 0.89 0.48 0.38 0.19 0.25 0.14 0.04 0.08 0.11 0.23 0.33 0.38 0.22 0.23 0.19 0.17 0.22 0.29 0.39 0.31 0.26 0.28 0.28 0.22 0.19 0.15 0.13 0.12 0.12 0.13 0.12 0.11 0.09 0.06 0.05 0.04 0.04 0.04 0.04 0.04 0.03 0.03 0.03 0.03 0.04 0.04 0.04 0.04 0.03 0.03 0.02 0.02
0.15 0.29 0.46 0.52 0.33 0.19 0.12 0.11 0.13 0.21 0.08 0.14 0.08 0.03 0.03 0.01 0.46 0.51 0.09 0.16 0.16 0.24 0.37 0.23 0.12 0.30 0.30 0.14 0.09 0.10 0.12 0.17 0.25 0.20 0.30 0.15 0.46 0.18 0.22 0.15 0.08 0.19 0.23 0.10 0.16 0.20 0.21 0.23 0.20 0.16 0.18 0.24 0.23 0.27 0.25 0.28 0.23 0.21 0.20 0.21 0.23 0.25 0.24 0.21 0.15 0.10 0.07 0.05 0.03 0.03 0.02 0.02 0.03 0.04 0.04 0.04 0.05 0.05 0.05 0.04 0.03 0.02 0.02 0.02 0.02
0.02 0.07 0.19 0.38 0.39 0.29 0.16 0.11 0.10 0.19 0.12 0.04 0.23 0.25 0.02 0.03 0.04 0.10 0.79 0.42 0.27 0.29 0.10 0.42 0.32 0.24 0.17 0.17 0.19 0.08 0.14 0.15 0.08 0.10 0.09 0.14 0.17 0.30 0.33 0.14 0.18 0.13 0.05 0.14 0.11 0.17 0.26 0.22 0.20 0.15 0.12 0.24 0.24 0.23 0.24 0.25 0.26 0.31 0.32 0.33 0.34 0.31 0.24 0.15 0.09 0.05 0.03 0.03 0.02 0.02 0.02 0.02 0.04 0.04 0.04 0.04 0.04 0.04 0.05 0.04 0.03 0.02 0.02 0.02 0.04
0.01 0.02 0.07 0.19 0.29 0.29 0.22 0.14 0.08 0.11 0.07 0.04 0.03 0.02 0.05 0.03 0.10 0.23 0.19 0.58 0.63 0.23 0.38 0.36 0.21 0.18 0.16 0.19 0.14 0.07 0.07 0.17 0.07 0.06 0.08 0.04 0.08 0.17 0.24 0.34 0.14 0.06 0.05 0.06 0.08 0.14 0.12 0.14 0.21 0.17 0.14 0.19 0.24 0.29 0.35 0.29 0.32 0.35 0.35 0.34 0.27 0.17 0.09 0.05 0.03 0.03 0.03 0.03 0.03 0.03 0.02 0.02 0.02 0.02 0.02 0.03 0.03 0.04 0.04 0.03 0.02 0.02 0.02 0.04 0.06
0.01 0.02 0.05 0.10 0.13 0.11 0.07 0.04 0.04 0.05 0.06 0.08 0.05 0.09 0.16 0.40 0.12 0.37 0.31 0.24 0.31 0.34 0.23 0.32 0.14 0.42 0.26 0.16 0.17 0.10 0.13 0.10 0.09 0.06 0.08 0.12 0.11 0.08 0.10 0.19 0.24 0.30 0.18 0.08 0.06 0.06 0.07 0.10 0.15 0.20 0.25 0.29 0.28 0.29 0.35 0.37 0.34 0.29 0.20 0.10 0.05 0.04 0.04 0.03 0.03 0.03 0.03 0.04 0.03 0.02 0.02 0.01 0.01 0.01 0.02 0.03 0.02 0.03 0.03 0.01 0.02 0.02 0.03 0.04 0.05
0.02 0.03 0.03 0.05 0.05 0.06 0.06 0.08 0.07 0.06 0.06 0.05 0.04 0.06 0.04 0.22 0.39 0.09 0.21 0.11 0.14 0.19 0.20 0.12 0.14 0.25 0.50 0.28 0.20 0.15 0.08 0.08 0.10 0.09 0.05 0.06 0.08 0.08 0.06 0.09 0.17 0.25 0.29 0.22 0.14 0.06 0.05 0.10 0.18 0.23 0.26 0.27 0.26 0.28 0.24 0.17 0.10 0.06 0.04 0.03 0.02 0.03 0.02 0.02 0.03 0.02 0.02 0.02 0.02 0.01 0.01 0.01 0.01 0.01 0.02 0.02 0.02 0.02 0.01 0.01 0.02 0.03 0.06 0.06 0.04
0.03 0.03 0.04 0.04 0.04 0.05 0.07 0.08 0.08 0.08 0.08 0.07 0.08 0.08 0.12 0.15 0.11 0.10 0.04 0.06 0.12 0.10 0.15 0.17 0.25 0.22 0.24 0.22 0.13 0.12 0.17 0.10 0.11 0.10 0.11 0.08 0.06 0.08 0.07 0.07 0.16 0.20 0.22 0.18 0.12 0.11 0.11 0.17 0.26 0.33 0.34 0.30 0.22 0.13 0.07 0.06 0.05 0.03 0.03 0.02 0.02 0.01 0.01 0.01 0.01 0.01 0.01 0.01 0.01 0.01 0.01 0.01 0.01 0.01 0.02 0.02 0.01 0.01 0.01 0.01 0.03 0.04 0.04 0.04 0.03
0.02 0.03 0.03 0.03 0.04 0.05 0.06 0.08 0.07 0.07 0.08 0.08 0.06 0.04 0.03 0.03 0.03 0.03 0.03 0.06 0.08 0.08 0.09 0.09 0.07 0.10 0.15 0.17 0.14 0.06 0.08 0.16 0.12 0.12 0.13 0.12 0.10 0.09 0.07 0.07 0.09 0.14 0.20 0.19 0.20 0.20 0.17 0.18 0.19 0.16 0.13 0.10 0.08 0.08 0.07 0.06 0.05 0.03 0.02 0.02 0.02 0.02 0.02 0.02 0.01 0.01 0.00 0.00 0.00 0.00 0.00 0.01 0.01 0.01 0.01 0.01 0.01 0.01 0.01 0.01 0.02 0.02 0.01 0.01 0.01
0.02 0.03 0.03 0.04 0.04 0.06 0.07 0.07 0.08 0.09 0.08 0.07 0.05 0.04 0.03 0.04 0.04 0.06 0.05 0.06 0.08 0.05 0.05 0.05 0.04 0.04 0.08 0.06 0.10 0.06 0.09 0.12 0.20 0.21 0.19 0.17 0.17 0.14 0.11 0.08 0.09 0.11 0.14 0.20 0.28 0.29 0.27 0.19 0.15 0.12 0.08 0.05 0.04 0.02 0.01 0.01 0.01 0.01 0.02 0.03 0.03 0.02 0.02 0.01 0.01 0.00 0.00 0.00 0.00 0.00 0.00 0.00 0.00 0.01 0.01 0.01 0.01 0.01 0.01 0.00 0.01 0.01 0.01 0.01 0.01
0.00 0.01 0.02 0.05 0.07 0.08 0.08 0.08 0.08 0.08 0.07 0.06 0.06 0.06 0.08 0.10 0.05 0.06 0.06 0.06 0.05 0.04 0.04 0.03 0.02 0.03 0.06 0.08 0.09 0.10 0.11 0.12 0.17 0.17 0.15 0.13 0.14 0.16 0.16 0.16 0.18 0.22 0.26 0.27 0.26 0.21 0.16 0.08 0.05 0.03 0.02 0.01 0.01 0.01 0.00 0.00 0.00 0.00 0.00 0.00 0.01 0.00 0.00 0.00 0.00 0.00 0.00 0.00 0.00 0.00 0.00 0.00 0.00 0.00 0.01 0.01 0.01 0.01 0.01 0.01 0.01 0.01 0.01 0.01 0.01
0.00 0.00 0.00 0.01 0.03 0.05 0.06 0.06 0.07 0.06 0.06 0.06 0.05 0.05 0.05 0.06 0.08 0.06 0.06 0.05 0.04 0.05 0.05 0.06 0.04 0.05 0.07 0.08 0.10 0.10 0.11 0.12 0.13 0.12 0.11 0.13 0.16 0.18 0.17 0.14 0.12 0.11 0.09 0.06 0.03 0.02 0.01 0.01 0.00 0.00 0.00 0.00 0.01 0.01 0.01 0.00 0.00 0.00 0.00 0.00 0.00 0.00 0.00 0.00 0.00 0.00 0.00 0.00 0.00 0.00 0.00 0.00 0.00 0.00 0.00 0.00 0.01 0.01 0.01 0.01 0.01 0.01 0.01 0.01 0.01